Regional Weather Roundup
Issued by NWS

Home | Current Version | Previous Version | Graphics & Text | Print | Product List | Glossary On
Versions: 1 2 3 4 5 6 7 8 9 10 11 12 13 14 15 16 17 18 19 20 21 22 23 24 25 26 27 28 29 30 31 32 33 34 35 36 37 38 39 40 41 42 43 44 45 46 47 48 49 50
000
ASUS45 KCYS 251310
RWRWY

WYOMING REGIONAL WEATHER ROUNDUP
NATIONAL WEATHER SERVICE CHEYENNE WY
700 AM MDT SAT MAR 25 2017

NOTE:  "FAIR" INDICATES FEW OR NO CLOUDS BELOW 12,000 FEET
WITH NO SIGNIFICANT WEATHER AND/OR OBSTRUCTIONS TO VISIBILITY.

WYZ001-251400-
YELLOWSTONE NATIONAL PARK

CITY           SKY/WX    TMP DP  RH WIND       PRES   REMARKS
LK YELLOWSTONE   N/A     30  30 100 CALM      30.04R
W YELLOWSTONE  NOT AVBL

$$
WYZ002>013-054>058-071-098>099-251400-
NORTHERN WYOMING

CITY           SKY/WX    TMP DP  RH WIND       PRES   REMARKS
JACKSON        LGT RAIN  34  32  93 SW5       30.04S WCI  30
CODY           FAIR      46  28  49 VRB6      29.94R
GREYBULL       FAIR      39  32  76 W3        29.91S
WORLAND        FAIR      36  34  92 SW6       29.92R WCI  31
SHERIDAN       FAIR      42  35  76 W5        29.90R
BUFFALO        FAIR      49  23  36 N7        29.93R
GILLETTE       FAIR      46  32  58 CALM      29.91R
HULETT         FAIR      46  28  49 SW12G18   29.92S
NEWCASTLE      FAIR      41  27  56 SE13G20   29.95F

$$
WYZ014>020-022>026-101>103-251400-
CENTRAL WYOMING

CITY           SKY/WX    TMP DP  RH WIND       PRES   REMARKS
BIG PINEY      CLOUDY    31  29  92 CALM      30.04S
PINEDALE       CLOUDY    32  32 100 W5        30.05S WCI  27
DUBOIS         CLOUDY    32  30  93 NW12      30.00S WCI  23
LANDER         FAIR      41  25  53 SE5       29.95R
RIVERTON       FAIR      40  30  67 NE3       29.95F
CASPER         FAIR      42  26  53 SW8       29.98R
DOUGLAS        FAIR      33  28  81 E7        29.97R WCI  27

$$
WYZ021-027>030-104>119-251400-
SOUTHERN WYOMING

CITY           SKY/WX    TMP DP  RH WIND       PRES   REMARKS
EVANSTON       MOCLDY    39  25  57 CALM      30.02S
KEMMERER         N/A     34  27  75 CALM      30.03F
FORT BRIDGER   FAIR      37  30  77 S3        30.05F
ROCK SPRINGS   FAIR      36  30  79 NE5       30.03S WCI  32
DIXON            N/A     32  24  74 E3        30.10F
RAWLINS        FAIR      41  23  48 SW8       30.04S
SARATOGA       FAIR      34  23  64 S6        30.08S WCI  29
LARAMIE        FAIR      36  22  56 SW13      30.04F WCI  27
CHEYENNE       FAIR      32  26  78 SW9       30.03S WCI  24
TORRINGTON     FAIR      31  26  82 SE8       29.99S WCI  23
PINE BLUFFS    FAIR      27  25  93 W5        30.04S WCI  21

$$



USA.gov is the U.S. government's official web portal to all federal, state and local government web resources and services.